TimeMST,TemperatureF,Dew PointF,Humidity,Sea Level PressureIn,VisibilityMPH,Wind Direction,Wind SpeedMPH,Gust SpeedMPH,PrecipitationIn,Events,Conditions,WindDirDegrees,DateUTC
12:04 AM,21.2,14.0,74,30.24,10.0,South,6.9,-,N/A,,Clear,180,2013-01-06 07:04:00
12:24 AM,21.2,14.0,74,30.24,10.0,South,8.1,-,N/A,,Clear,180,2013-01-06 07:24:00
12:44 AM,21.2,12.2,68,30.24,10.0,South,8.1,-,N/A,,Clear,180,2013-01-06 07:44:00
1:04 AM,19.4,12.2,74,30.23,10.0,South,8.1,-,N/A,,Clear,190,2013-01-06 08:04:00
1:24 AM,19.4,12.2,74,30.23,10.0,South,6.9,-,N/A,,Clear,180,2013-01-06 08:24:00
1:44 AM,19.4,12.2,74,30.23,10.0,South,6.9,-,N/A,,Clear,180,2013-01-06 08:44:00
2:03 AM,19.4,10.4,68,30.23,10.0,South,6.9,-,N/A,,Clear,180,2013-01-06 09:03:00
2:23 AM,17.6,10.4,73,30.22,10.0,South,6.9,-,N/A,,Clear,180,2013-01-06 09:23:00
2:43 AM,19.4,10.4,68,30.22,10.0,South,9.2,-,N/A,,Clear,180,2013-01-06 09:43:00
3:04 AM,19.4,10.4,68,30.22,10.0,South,9.2,-,N/A,,Clear,190,2013-01-06 10:04:00
3:24 AM,19.4,10.4,68,30.21,10.0,South,9.2,-,N/A,,Clear,180,2013-01-06 10:24:00
3:44 AM,19.4,10.4,68,30.20,10.0,South,9.2,-,N/A,,Clear,180,2013-01-06 10:44:00
4:03 AM,19.4,8.6,63,30.20,10.0,South,6.9,-,N/A,,Clear,170,2013-01-06 11:03:00
4:24 AM,19.4,8.6,63,30.19,10.0,South,8.1,-,N/A,,Clear,180,2013-01-06 11:24:00
4:44 AM,19.4,8.6,63,30.19,10.0,South,6.9,-,N/A,,Clear,180,2013-01-06 11:44:00
5:04 AM,19.4,8.6,63,30.18,10.0,South,6.9,-,N/A,,Clear,190,2013-01-06 12:04:00
5:23 AM,17.6,8.6,68,30.18,10.0,South,6.9,-,N/A,,Clear,170,2013-01-06 12:23:00
5:44 AM,17.6,6.8,63,30.17,10.0,South,8.1,-,N/A,,Clear,180,2013-01-06 12:44:00
6:04 AM,19.4,6.8,58,30.17,10.0,South,8.1,-,N/A,,Clear,180,2013-01-06 13:04:00
6:24 AM,19.4,6.8,58,30.17,10.0,South,8.1,-,N/A,,Clear,180,2013-01-06 13:24:00
6:44 AM,19.4,5.0,54,30.17,10.0,South,8.1,-,N/A,,Clear,180,2013-01-06 13:44:00
7:04 AM,19.4,5.0,54,30.16,10.0,South,8.1,-,N/A,,Clear,170,2013-01-06 14:04:00
7:07 AM,19.4,5.0,54,30.16,10.0,South,8.1,-,N/A,,Clear,180,2013-01-06 14:07:00
4:49 PM,33.8,23.0,65,29.96,50.0,NW,3.5,-,N/A,,Mostly Cloudy,310,2013-01-06 23:49:00
5:52 PM,35.6,19.4,52,29.95,20.0,Calm,Calm,-,N/A,,Mostly Cloudy,0,2013-01-07 00:52:00
6:48 PM,32.0,19.4,60,29.94,20.0,SSW,3.5,-,N/A,,Mostly Cloudy,200,2013-01-07 01:48:00
7:50 PM,32.0,19.4,60,29.93,20.0,WSW,8.1,-,N/A,,Mostly Cloudy,240,2013-01-07 02:50:00
9:04 PM,32.0,17.6,55,29.93,10.0,WSW,6.9,-,N/A,,Clear,240,2013-01-07 04:04:00
9:24 PM,32.0,14.0,48,29.93,10.0,SW,8.1,-,N/A,,Clear,230,2013-01-07 04:24:00
9:44 PM,33.8,12.2,41,29.93,10.0,SW,8.1,-,N/A,,Clear,230,2013-01-07 04:44:00
10:03 PM,35.6,12.2,38,29.93,10.0,SW,8.1,-,N/A,,Clear,230,2013-01-07 05:03:00
10:44 PM,37.4,15.8,41,29.93,10.0,SSW,10.4,-,N/A,,Clear,210,2013-01-07 05:44:00
11:04 PM,41.0,14.0,33,29.93,10.0,SSW,10.4,-,N/A,,Clear,210,2013-01-07 06:04:00
11:22 PM,41.0,14.0,33,29.93,10.0,SSW,12.7,-,N/A,,Clear,210,2013-01-07 06:22:00
11:44 PM,42.8,12.2,29,29.93,10.0,SW,9.2,-,N/A,,Scattered Clouds,220,2013-01-07 06:44:00